Location: Plainartige
(45.6866°N, 1.7993°E)
Time: 14:04:33
(UTC+00:00)

Cosmos 1271 Rocket - Pass Details

Date: 03 March 2021
Orbit: 498 x 544 km, 81.2° (Epoch: 15 April)

Event Time Altitude Azimuth Distance (km) Brightness Sun altitude
Rises 18:29:32 0° 344° (NNW) 2,601 6.5 -9.0°
Reaches altitude 10° 18:31:42 10° 338° (NNW) 1,713 5.6 -9.4°
Maximum altitude 18:35:19 48° 264° (W) 668 3.8 -10.0°
Drops below altitude 10° 18:38:55 10° 190° (S) 1,709 5.4 -10.6°
Sets 18:41:05 0° 184° (S) 2,593 6.3 -11.0°
